User: anonymous   Login
Location: Mactaquac Provincial Park
(45.9573°N, 66.8897°W)
Time: 10:56:10
(UTC-04:00)
Language:

Cosmos 1867 - Orbit

View from above orbital plane
View from above orbital plane
View from above satellite
View from above satellite

Ground track
Ground track

The orbit data is extracted from the following two-line orbital elements,

1 18187U 87060A   18017.34931904 -.00000081  00000-0  70914-5 0  9992
2 18187  65.0116 349.4505 0014887 280.0382  79.9022 14.31091664594649
Epoch (UTC): 17 January 2018 08:23:01
Eccentricity: 0.0014887
inclination: 65.0116°
perigee height: 777 km
apogee height: 799 km
right ascension of ascending node: 349.4505°
argument of perigee: 280.0382°
revolutions per day: 14.31091664
mean anomaly at epoch: 79.9022°
orbit number at epoch: 59464

The dashed part of the orbit path shows where the satellite is in the earth's shadow,  

DLR